Location: Kermapucano
(48.0667°N, 3.3000°W)
Time: 20:16:34
(UTC+00:00)

ERS-2 - Pass Details

Date: 29 November 2020
Orbit: 492 x 498 km, 98.6° (Epoch: 27 January)

Event Time Altitude Azimuth Distance (km) Brightness Sun altitude
Rises 05:50:29 0° 196° (SSW) 2,565 5.7 -17.7°
Reaches altitude 10° 05:52:54 10° 212° (SSW) 1,690 4.6 -17.3°
Enters shadow 05:53:16 12° 216° (SW) 1,575 4.4 -17.2°
